Printer-friendly version

IAU Minor Planet Center

Minor Planet Center

MPEC 2007-J60 : 2007 JJ35

The following Minor Planet Electronic Circular may be linked-to from your own Web pages, but must not otherwise be redistributed electronically.


Read MPEC 2007-J59 Read MPEC 2007-J61


M.P.E.C. 2007-J60                                Issued 2007 May 15, 04:49 UT

     The Minor Planet Electronic Circulars contain information on unusual
         minor planets and routine data on comets.  They are published
   on behalf of Commission 20 of the International Astronomical Union by the
          Minor Planet Center, Smithsonian Astrophysical Observatory,
                          Cambridge, MA 02138, U.S.A.

             Prepared using the Tamkin Foundation Computer Network

                              MPC@CFA.HARVARD.EDU
          URL http://www.cfa.harvard.edu/iau/mpc.html  ISSN 1523-6714

                                   2007 JJ35

Observations:
     K07J35J* C2007 05 14.55039 13 21 18.479-26 48 50.06         17.0 V EJ060E12
     K07J35J  C2007 05 14.55725 13 21 18.711-26 47 31.84         17.0 V EJ060E12
     K07J35J  C2007 05 14.56408 13 21 18.940-26 46 13.81         17.1 R EJ060E12
     K07J35J  C2007 05 14.57105 13 21 19.178-26 44 53.87         17.0 V EJ060E12
     K07J35J  C2007 05 14.61838 13 21 20.830-26 35 52.66         17.0 R EJ060E12
     K07J35J  C2007 05 14.62254 13 21 20.981-26 35 04.95         17.1 R EJ060E12
     K07J35J  C2007 05 14.62297 13 21 20.992-26 35 00.16         17.0 R EJ060E12
     K07J35J  C2007 05 14.67060 13 21 22.785-26 25 55.22         17.2 R EJ060E12
     K07J35J  C2007 05 14.67228 13 21 22.847-26 25 36.05         17.2 R EJ060E12
     K07J35J 5C2007 05 15.16791713 21 47.521-24 52 31.09         17.6 R EJ060673
     K07J35J 5C2007 05 15.17000013 21 47.563-24 52 07.46                EJ060673
     K07J35J  C2007 05 15.18652 13 21 48.31 -24 49 00.6          16.8 R EJ060854
     K07J35J  C2007 05 15.18723 13 21 48.29 -24 48 58.4          16.7 R EJ060854
     K07J35J  C2007 05 15.18758 13 21 48.03 -24 48 48.6          17.0 R EJ060854
     K07J35J  C2007 05 15.18793 13 21 48.03 -24 48 45.0          16.8 R EJ060854
     K07J35J  C2007 05 15.18864 13 21 48.09 -24 48 37.3          17.0 R EJ060854
     K07J35J  C2007 05 15.19040 13 21 48.09 -24 48 17.8          17.1 R EJ060854

Observer details:
673 Table Mountain Observatory, Wrightwood.  Observer J. Young.  0.61-m f/16
    Cassegrain + CCD.
854 Sabino Canyon Observatory, Tucson.  Observer J. E. McGaha.  0.36-m f/10.0
    Schmidt-Cassegrain + CCD.
E12 Siding Spring Survey.  Observer R. H. McNaught.  Measurers E. C. Beshore,
    E. J. Christensen, G. J. Garradd, A. R. Gibbs, A. D. Grauer, R. E. Hill,
    R. A. Kowalski, S. M. Larson, R. H. McNaught.  0.5-m Uppsala Schmidt + CCD.

Orbital elements:
2007 JJ35                                                Earth MOID = 0.2750 AU
Epoch 2007 Apr. 10.0 TT = JDT 2454200.5                 MPC
M   1.53511              (2000.0)            P               Q
n   0.41512331     Peri.  324.61742     -0.76679542     -0.01551438
a   1.7797184      Node   230.64269     -0.19927963     -0.94455600
e   0.3068331      Incl.   56.09114     -0.61017408     +0.32798365
P   2.37           H   18.4           G   0.15           U   9
Residuals in seconds of arc
070514 E12  0.1-  0.1+    070514 E12  0.1-  0.0     070515 854 (3.9+  5.3-)
070514 E12  0.1-  0.1-    070514 E12  0.1-  0.1-    070515 854  0.2+  0.6+
070514 E12  0.1-  0.1-    070514 E12  0.1-  0.1-    070515 854  0.0   0.2+
070514 E12  0.0   0.1+    070515 673  0.3-  0.2-    070515 854  0.5+  0.1-
070514 E12  0.0   0.1+    070515 673  0.7-  0.0     070515 854  0.3-  0.4-
070514 E12  0.0   0.2+    070515 854 (4.5+  0.5+)

Ephemeris:
2007 JJ35                a,e,i = 1.78, 0.31, 56                  q = 1.2336
Date    TT    R. A. (2000) Decl.     Delta      r     Elong.  Phase     V
2007 05 10    13 18.01   -41 20.0    0.295    1.267   146.8    25.9    17.4
2007 05 20    13 25.51   -10 43.5    0.321    1.288   145.2    26.6    17.7
2007 05 30    13 33.96   +09 42.3    0.422    1.314   127.5    37.7    18.6
2007 06 09    13 43.36   +20 29.2    0.558    1.344   114.2    43.6    19.5
2007 06 19    13 53.72   +26 07.3    0.706    1.377   104.7    45.5    20.1
2007 06 29    14 05.11   +29 06.2    0.855    1.413    97.6    45.5    20.5
2007 07 09    14 17.48   +30 36.8    1.001    1.450    91.9    44.5    20.9
2007 07 19    14 30.85   +31 14.2    1.140    1.490    87.2    42.9    21.2
2007 07 29    14 45.26   +31 18.2    1.272    1.530    83.2    41.2    21.5
2007 08 08    15 00.68   +31 00.3    1.394    1.572    79.8    39.4    21.7
2007 08 18    15 17.13   +30 27.7    1.508    1.613    76.8    37.7    21.8
2007 08 28    15 34.62   +29 45.8    1.612    1.655    74.3    36.0    22.0

Timothy B. Spahr             (C) Copyright 2007 MPC           M.P.E.C. 2007-J60

Read MPEC 2007-J59 Read MPEC 2007-J61


Our Web policy. Index to the CBAT/MPC/ICQ pages.


Valid HTML 4.01!